Location: Newark
(43.6583°N, 1.6617°E)
Time: 23:00:50
(UTC+00:00)

Transit 4A - Pass Details

Date: 31 August 2019
Orbit: 865 x 980 km, 66.8° (Epoch: 19 September)

Event Time Altitude Azimuth Distance (km) Brightness Sun altitude
Rises 02:20:45 0° 317° (NW) 3,606 11.0 -27.9°
Enters shadow 02:23:47 10° 303° (WNW) 2,658 10.2 -27.5°
Reaches altitude 10° 02:23:52 10° 303° (WNW) 2,636 - -27.5°
Maximum altitude 02:28:22 22° 255° (WSW) 1,888 - -27.0°
Drops below altitude 10° 02:32:46 10° 207° (SSW) 2,563 - -26.4°
Sets 02:35:46 0° 192° (SSW) 3,480 - -26.0°
